Location: Kellogg
(38.0159°N, 90.0546°W)
Time: 08:06:48
(UTC+00:00)

Vanguard 1 Rocket - Pass Details

Date: 13 September 2024
Orbit: 650 x 4218 km, 34.3° (Epoch: 05 October)

Event Time Altitude Azimuth Distance (km) Brightness Sun altitude
Rises 17:34:06 0° 287° (WNW) 8,379 12.1 55.0°
Reaches altitude 10° 17:41:09 10° 279° (W) 7,426 12.1 55.2°
Maximum altitude 18:00:32 29° 230° (SW) 5,359 12.2 55.4°
Drops below altitude 10° 18:15:22 10° 177° (S) 5,600 12.2 55.1°
Sets 18:19:48 0° 166° (SSE) 6,122 12.1 54.9°
